Following observations were included.

    CK03K040  C2003 09 13.80216 19 34 17.26 +28 24 04.8 D0000E   17.1 Vc     201

    CK03K040  C2003 09 13.81243 19 34 16.74 +28 23 59.2 D0000E   16.3 Vc     201

    CK03K040  C2004 05 26.95992 19 23 09.80 +40 21 15.0 T001B5   11.5 Rr     A41

    CK03K040  C2004 05 26.97635 19 23 06.79 +40 21 41.0 T001B5   11.1 Rr     A41



    C/2003 K4 (LINEAR)

Epoch 2004 Oct. 2.0 TT = JDT 2453280.5  

T 2004 Oct. 13.71695 TT                                 Nakano

q   1.0236211            (2000.0)            P               Q

z  -0.0003000      Peri.  198.44073     -0.96938452     +0.08769313

 +/-0.0000006      Node    18.67549     +0.00328613     +0.93860309

e   1.0003070      Incl.  134.25275     -0.24552567     -0.33366774

From 3553 observations 2003 May  28-2006 Nov. 16, mean residual 0".62.

   Nongravitational parameters A1 = +0.76 +/- 0.02, A2 = -0.3399 +/- 0.0062.

   (1/a)org.= +0.000024, (1/a)fut.= -0.000142 (+/-0.000001), Q= 8.

Residuals in seconds of arc 

2003/                     031207 A46  0.1+  0.3-    040719 048  0.2-  0.9+  

030528 704  0.3-  0.9-    031207 A46  0.6+  0.2-    040719 048  0.5-  1.2+  

030528 704  0.6-  0.5-    031207 A46  0.5+  0.0     040719 048  0.9-  1.4+  

030528 704  0.2+  0.7-    031207 A46  0.8+  0.1+    040719 048  0.6-  0.7+  

030528 704  0.3-  0.6-    031207 A46  0.4+  0.2-    040719 048  0.2-  0.6+  

030528 704  0.5-  0.1-    031207 A46  0.4+  0.0     040719 235 (3.8+  2.0+) 

030529 196  0.3-  0.1-    031207 A18  0.8+  0.4+    040719 A46  0.6-  0.4-  

030529 196  1.2-  0.4-    031207 A18  1.0+  0.8+    040719 A46  1.0-  0.6-  

030529 196  0.7-  1.4+    031209 A46  0.7+  0.2-    040719 A46  0.5-  0.5-  

030529 704  1.0-  1.6+    031209 A46  0.2+  0.1-    040719 A46  0.6-  0.4-  

030529 926  0.1-  0.6-    031209 A46  0.7+  0.1-    040719 A46  0.5-  0.5-  

030529 704  1.5-  1.3+    031209 A46  0.4+  0.2-    040719 A46  0.6-  0.6-  

030529 704  0.1+  0.3+    031209 A46  0.4+  0.3-    040719 A10  0.0   0.2-  

030529 926  0.1+  0.9-    031209 A46  0.6+  0.1-    040719 A10  0.3-  0.3-  

030529 926  0.2-  0.8-    031210 900  1.5+  0.7+    040720 372  1.1-  0.7+  

030529 704  0.4-  0.6+    031210 900  0.6+  0.6+    040720 372 (2.3-  2.2+) 

030529 704 (3.1-  0.2+)   031210 A18  0.6+  0.5+    040720 213  0.3+  0.6+  

030529 704  0.3+  0.0     031210 J97  0.4+  0.2+    040720 213  0.1+  0.4+  

030529 704 (2.9-  0.4+)   031210 J97  1.7+  0.8+    040720 213  0.1+  0.3+  

030529 704  0.4-  0.3+    031210 J97  1.4+  0.4+    040720 235  1.5-  1.5-  

030529 854  0.3-  0.1-    031210 J97  1.1+  0.5+    040721 762  0.3-  0.3-  

030529 704  0.7-  1.2+    031212 235  0.2+  0.2+    040721 762  0.5-  0.1-  

030529 854  0.7-  0.3-    031213 349  1.4+  0.9+    040721 762  0.4-  0.1-  

030529 854  0.0   0.1+    031213 349  1.4+  0.1+    040721 379  0.3-  0.0   

030529 673  0.9-  0.3+    031213 349  1.1+  0.8+    040721 379  0.4+  0.2+  

030529 673  0.9-  0.2+    031213 J87  0.3+  0.1-    040721 379  1.0-  0.1+  

030529 673  0.6-  0.4+    031213 J87  0.3+  0.2-    040721 048  0.3-  0.2+  

030529 673  0.8-  0.3+    031213 J87  0.2+  0.2-    040721 048  0.5-  0.4+  

030529 673  0.0   0.2-    031221 349  0.9+  0.4+    040721 048  0.0   0.0   

030529 673  0.2-  0.2-    031221 349  0.8+  0.1+    040721 048  0.1-  0.1+  

030529 106  0.7-  0.4-    031221 349  0.9+  0.2+    040721 048  0.2+  0.1-  

030530 106  0.7-  0.3-    031221 349  0.5+  0.1+    040721 235 (2.6+  1.2+) 

030530 620  0.6-  0.2+    031223 A46  0.4+  0.0     040721 A30  0.3+  0.4+  

030530 620  0.3-  0.4+    031223 A46  0.5+  0.1-    040721 A30  0.2+  0.2-  

030530 106  0.4-  0.4-    031223 A46  0.2+  0.1-    040721 A30  0.3+  0.1+  

030530 620  0.8-  0.5+    031223 A46  0.9+  0.1+    040721 A46  1.2-  0.4-  

030530 106  0.1+  0.1-    031223 A46  0.4+  0.1-    040721 A30  0.2-  0.2+  

030530 734  0.8-  0.0     031223 A46  0.3+  0.0     040721 A46  0.9-  0.7-  

030530 734  0.4-  0.4-    031228 349  0.0   0.2+    040721 A30  0.2-  0.1+  

030530 G90  0.5-  0.0     031228 349  0.4+  0.2+    040721 A46  1.2-  0.4-  

030530 G90  0.4-  0.0     031228 349  0.5+  0.2+    040721 A46  0.9-  0.5-  

030530 G90  0.5-  0.2+    031228 349  0.1+  0.5+    040721 A46  0.8-  0.4-  

030530 704  0.2-  0.2+    2004/                     040721 A46  1.1-  0.4-  

030530 850  0.3-  0.2-    040105 204  0.9+  0.4+    040722 213  0.2+  0.7+  

030530 704  0.0   0.5-    040105 204  0.6+  0.3+    040722 213  0.0   0.7+  

030530 850  0.3-  0.1-    040105 204  0.5+  0.7+    040722 213  0.2+  0.5+  

030530 704  0.0   0.3-    040105 204  1.7+  0.8+    040722 213  0.6+  0.8+  

030530 850  0.1-  0.0     040130 349  0.7+  0.2-    040722 235  0.0   0.8+  

030530 704  0.4-  0.1+    040130 349  1.2+  0.0     040722 A32  0.5+  1.0+  

030530 704  0.4-  0.1+    040130 349  0.9+  0.2+    040722 A32  0.4+  0.6+  

030530 673  0.7-  0.2+    040130 349  0.7+  0.3+    040722 A10  0.5-  0.0   

030530 673  0.6-  0.1+    040131 349  0.8+  0.2+    040722 A32  0.8+  0.5+  

030530 673  0.8-  0.3+    040131 349  0.8+  0.1+    040722 A32  0.0   1.0+  

030530 673  1.5-  1.3+    040131 349  0.4+  0.4+    040723 379  0.5-  0.3+  

030530 711  1.1-  0.7+    040131 349  0.4+  0.3+    040723 379  0.6-  0.7+  

030530 673  0.9-  0.3+    040217 349  0.6+  0.8+    040723 379  0.8-  0.7+  

030530 711  1.6-  0.8+    040217 349  0.9+  0.7+    040723 213  0.3+  0.5+  

030530 673  0.7-  0.3+    040217 349  0.7+  0.7+    040723 213  0.3+  0.3+  

030530 711  0.7-  0.4+    040217 349  0.7+  0.7+    040723 213  0.3-  0.7+  

030530 673  0.7-  0.2-    040227 D83  1.0+  0.4+    040723 A54 (3.9+  1.1+) 

030530 673  0.6-  0.2+    040227 D83  1.4+  0.3+    040723 A54 (5.7+  2.2+) 

030530 673  0.8-  0.1+    040227 D83  1.5+  0.5+    040723 939  0.3-  1.1+  

030530 673  0.8-  0.0     040227 D70  0.3+  1.0+    040723 939  0.4-  0.7+  

030531 J95  0.4-  0.3-    040227 D70  0.3+  0.5+    040723 939  0.4-  0.6+  

030531 J95  0.6-  0.2-    040227 D70  0.2+  0.4+    040724 H72  0.5+  0.7+  

030531 J95  0.5-  0.2-    040313 379  0.1+  0.1+    040724 H72  0.3-  1.0+  

030531 204  1.1+  1.0+    040313 379  1.2+  0.5+    040724 H72  0.0   1.0+  

030531 A50 (0.1+  2.7-)   040313 379  0.6+  0.3+    040724 H72  0.2+  0.7+  

030531 A50 (0.4+  3.2-)   040317 H41  1.1+  0.1-    040724 379  0.3-  0.5-  

030531 A50  0.5-  0.3-    040317 H41  1.0+  0.3-    040724 379  0.1+  0.2-  

030531 A50  0.6-  0.2+    040318 048  0.1+  0.6-    040724 379  0.3-  0.3+  

030531 A50  0.0   0.2-    040318 048  0.2+  0.6-    040724 379  0.1-  0.0   

030601 213  0.6-  1.5-    040318 048  0.1+  0.4-    040724 379  0.8-  0.2-  

030601 213  0.5-  1.1-    040318 048  0.5+  0.3-    040724 379  0.6-  0.2-  

030601 213  0.2-  0.4-    040318 048  0.3+  0.5-    040724 442  0.1-  0.2-  

030601 850  0.9-  0.6-    040320 D83  0.4+  0.5+    040724 442  0.3+  0.2+  

030601 850  0.1-  0.3-    040320 D83  0.6+  0.6+    040724 442  0.1+  0.1+  

030601 850  0.7-  0.3-    040320 D83  0.1+  0.6+    040724 442  0.1-  0.3+  

030601 372  0.2+  0.6+    040320 379  0.3-  0.4-    040724 442  0.1-  0.1-  

030601 372  0.2+  0.0     040320 379  0.0   0.5-    040724 J76  0.0   0.3+  

030601 360  0.8-  0.5-    040321 939  0.6+  0.4+    040724 J76  0.1+  0.5+  

030601 360  0.9-  0.3-    040321 939  0.7+  0.4+    040724 J76  0.0   0.5+  

030601 360  0.8-  0.3-    040321 939  0.6+  0.3+    040724 A01 (3.2+  3.7+) 

030602 H72  0.4-  0.5+    040321 H41 (1.6-  3.0+)   040724 A01 (3.1+  3.7+) 

030602 H72  0.1-  0.4-    040321 H41 (2.3-  1.8+)   040724 A01 (3.1+  3.7+) 

030602 H72  1.0-  0.1-    040321 H41 (2.4-  1.1+)   040725 762  0.4-  0.1+  

030602 H72  0.4+  1.4-    040322 J93  1.1+  0.6+    040725 762  0.4-  0.0   

030602 H72  1.4-  0.7-    040322 J93  1.0+  0.6+    040725 939  0.6-  0.4+  

030602 H72  1.2-  0.4-    040322 J93  0.8+  0.6+    040725 939  0.5-  0.3+  

030602 651  0.3-  0.0     040322 J93  0.7+  0.6+    040725 939  0.4-  0.1+  

030602 651  0.4-  0.3-    040322 J93  0.9+  0.5+    040725 A46  0.8-  0.7-  

030602 G90  0.4-  0.2-    040322 J93  0.8+  0.7+    040725 A46  0.5-  0.8-  

030602 G90  0.4-  0.2-    040322 J93  0.7+  0.7+    040725 A46  0.7-  0.4-  

030602 G90  0.4-  0.3-    040326 349  0.4+  0.3+    040725 A46  0.7-  0.7-  

030602 349  1.7-  0.7-    040326 349  0.4+  0.3+    040725 A46  0.5-  0.2-  

030602 349  1.1-  0.2-    040326 349  0.4+  0.3+    040725 A46  1.1-  0.6-  

030602 349  0.0   0.2-    040326 349  0.3+  0.4+    040726 762  0.3-  0.1-  

030602 349  0.7-  0.5-    040327 349  0.2+  0.3+    040726 762  0.3-  0.0   

030602 349  1.1-  0.8-    040327 349  0.3+  0.2+    040726 379  0.5-  0.1+  

030602 246  0.3+  0.6-    040327 349  0.4+  0.1+    040726 379  0.2+  0.1+  

030602 246  0.5+  0.8-    040327 349  0.4+  0.2+    040726 379  0.5-  0.0   

030602 246  0.6+  0.5-    040328 379  0.9+  0.4+    040726 379  0.0   0.3+  

030602 246  0.4+  0.2-    040328 379  0.2+  0.4-    040727 415  0.1+  0.3+  

030603 246  0.6+  0.2-    040328 379  0.2+  0.4+    040727 415  0.0   0.0   

030603 246  0.5+  0.1-    040328 360  0.3+  0.1+    040727 379  0.4-  0.2+  

030603 246  0.6+  0.2-    040328 360  0.1+  0.0     040727 379  0.1-  0.3-  

030603 246  0.3+  0.1-    040330 235  0.5+  2.0+    040727 379  0.2-  0.0   

030603 J95  0.4-  0.2+    040331 048  0.7+  0.5-    040727 442  0.1-  0.1+  

030603 J95  0.5-  0.8-    040331 048  0.6+  0.3-    040727 442  0.1+  0.1+  

030603 854  0.3-  0.3-    040331 048  1.1+  0.2-    040727 442  0.1-  0.1+  

030603 854  1.3+  1.4-    040331 A46  0.7+  0.1+    040727 442  0.5-  0.1+  

030603 H72 (2.2-  1.0-)   040331 A46  0.7+  0.0     040727 442  0.2+  0.2-  

030603 H72  1.5-  0.5-    040331 A46  0.5+  0.1+    040727 A32  0.3-  0.6+  

030603 H72  2.1-  0.8+    040331 048  0.9+  0.4-    040727 J74  1.7-  1.7-  

030603 H72 (3.0-  2.1+)   040331 A46  0.6+  0.1+    040727 A32  0.3-  0.5+  

